Location: Paris
(48.6709°N, 2.3750°E)
Time: 13:27:16
(UTC+01:00)

ISS - Pass Details

Date: 31 October 2021
Orbit: 417 x 423 km, 51.6° (Epoch: 30 November)

Event Time Altitude Azimuth Distance (km) Brightness Sun altitude
Exits shadow 06:53:40 10° 290° (WNW) 1,523 -1.6 -7.4°
Reaches altitude 10° 06:53:43 10° 290° (WNW) 1,505 -1.6 -7.4°
Maximum altitude 06:57:02 54° 9° (N) 515 -3.3 -6.9°
Drops below altitude 10° 07:00:21 10° 89° (E) 1,499 0.6 -6.4°
Sets 07:02:33 0° 94° (E) 2,395 2.2 -6.0°
